When you browse on this site, cookies collect data to enhance your experience and personalize the content and advertising you see.
Visit our Privacy Policy to learn more. By continuing to use the site, you agree to this use of cookies and data.
  • In Deutschland
  • Länderverzeichnis
  • Für 7 Tage
  • Wassertemperatur
  • Wetterkarte
  • Widgets
  • user-avatar
    Anmelden

    Stündliche Wetter Cordoba

    Heute, 30 Mai, Samstag

    Zeit Temperatur Niederschläge Wind Luftdruck Luftfeuchtigkeit
    00:00 +13°C° 0 mm 3 m/S 723 mmHg 68%
    01:00 +12°C° 0 mm 4 m/S 723 mmHg 72%
    02:00 +12°C° 0 mm 4 m/S 724 mmHg 76%
    03:00 +11°C° 0 mm 4 m/S 724 mmHg 79%
    04:00 +10°C° 0 mm 4 m/S 724 mmHg 81%
    05:00 +8°C° 0 mm 4 m/S 724 mmHg 83%
    06:00 +8°C° 0 mm 4 m/S 725 mmHg 79%
    07:00 +8°C° 0 mm 4 m/S 726 mmHg 76%
    08:00 +8°C° 0 mm 4 m/S 726 mmHg 72%
    09:00 +10°C° 0 mm 4 m/S 727 mmHg 66%
    10:00 +10°C° 0 mm 5 m/S 727 mmHg 61%
    11:00 +12°C° 0 mm 5 m/S 727 mmHg 55%
    12:00 +13°C° 0 mm 5 m/S 727 mmHg 51%
    13:00 +14°C° 0 mm 5 m/S 727 mmHg 46%
    14:00 +15°C° 0 mm 5 m/S 726 mmHg 42%
    15:00 +14°C° 0 mm 5 m/S 726 mmHg 41%
    16:00 +14°C° 0 mm 4 m/S 726 mmHg 39%
    17:00 +13°C° 0 mm 4 m/S 727 mmHg 37%
    18:00 +12°C° 0 mm 4 m/S 727 mmHg 41%
    19:00 +11°C° 0 mm 3 m/S 728 mmHg 44%
    20:00 +10°C° 0 mm 3 m/S 728 mmHg 47%
    21:00 +10°C° 0 mm 3 m/S 729 mmHg 50%
    22:00 +9°C° 0 mm 3 m/S 729 mmHg 53%
    23:00 +9°C° 0 mm 3 m/S 729 mmHg 56%

    Morgen, 31 Mai, Sonntag

    Zeit Temperatur Niederschläge Wind Luftdruck Luftfeuchtigkeit
    00:00 +8°C° 0 mm 3 m/S 729 mmHg 59%
    01:00 +8°C° 0 mm 3 m/S 729 mmHg 61%
    02:00 +7°C° 0 mm 2 m/S 730 mmHg 64%
    03:00 +7°C° 0 mm 2 m/S 729 mmHg 65%
    04:00 +6°C° 0 mm 2 m/S 729 mmHg 66%
    05:00 +7°C° 0 mm 1 m/S 729 mmHg 67%
    06:00 +7°C° 0 mm 1 m/S 729 mmHg 66%
    07:00 +7°C° 0 mm 1 m/S 730 mmHg 64%
    08:00 +8°C° 0 mm 1 m/S 730 mmHg 62%
    09:00 +9°C° 0 mm 1 m/S 730 mmHg 55%
    10:00 +10°C° 0 mm 2 m/S 730 mmHg 47%
    11:00 +13°C° 0 mm 2 m/S 731 mmHg 40%
    12:00 +13°C° 0 mm 2 m/S 730 mmHg 36%
    13:00 +14°C° 0 mm 2 m/S 729 mmHg 33%
    14:00 +15°C° 0 mm 2 m/S 729 mmHg 30%
    15:00 +15°C° 0 mm 2 m/S 729 mmHg 32%
    16:00 +14°C° 0 mm 1 m/S 728 mmHg 34%
    17:00 +13°C° 0 mm 1 m/S 728 mmHg 35%
    18:00 +12°C° 0 mm 1 m/S 728 mmHg 38%
    19:00 +11°C° 0 mm 1 m/S 729 mmHg 41%
    20:00 +10°C° 0 mm 1 m/S 729 mmHg 44%
    21:00 +8°C° 0 mm 0 m/S 729 mmHg 45%
    22:00 +8°C° 0 mm 0 m/S 730 mmHg 46%
    23:00 +8°C° 0 mm 0 m/S 730 mmHg 47%

    übermorgen, 1 Juni, Montag

    Zeit Temperatur Niederschläge Wind Luftdruck Luftfeuchtigkeit
    00:00 +7°C° 0 mm 0 m/S 730 mmHg 49%
    01:00 +7°C° 0 mm 0 m/S 730 mmHg 50%
    02:00 +7°C° 0 mm 0 m/S 730 mmHg 52%
    03:00 +6°C° 0 mm 0 m/S 729 mmHg 53%
    04:00 +6°C° 0 mm 0 m/S 729 mmHg 54%
    05:00 +6°C° 0 mm 0 m/S 729 mmHg 55%
    06:00 +6°C° 0 mm 0 m/S 730 mmHg 54%
    07:00 +7°C° 0 mm 0 m/S 730 mmHg 54%
    08:00 +8°C° 0 mm 1 m/S 730 mmHg 54%
    09:00 +10°C° 0 mm 1 m/S 730 mmHg 48%
    10:00 +12°C° 0 mm 2 m/S 730 mmHg 42%
    11:00 +14°C° 0 mm 2 m/S 730 mmHg 37%
    12:00 +15°C° 0 mm 2 m/S 729 mmHg 35%
    13:00 +16°C° 0 mm 3 m/S 729 mmHg 34%
    14:00 +17°C° 0 mm 3 m/S 728 mmHg 32%
    15:00 +16°C° 0 mm 3 m/S 728 mmHg 35%
    16:00 +15°C° 0 mm 2 m/S 728 mmHg 38%
    17:00 +14°C° 0 mm 2 m/S 728 mmHg 41%
    18:00 +13°C° 0 mm 2 m/S 728 mmHg 45%
    19:00 +12°C° 0 mm 2 m/S 728 mmHg 49%
    20:00 +9°C° 0 mm 2 m/S 728 mmHg 53%
    21:00 +9°C° 0 mm 2 m/S 728 mmHg 54%
    22:00 +9°C° 0 mm 2 m/S 728 mmHg 56%
    23:00 +8°C° 0 mm 2 m/S 729 mmHg 57%

    2 Juni, Dienstag

    Zeit Temperatur Niederschläge Wind Luftdruck Luftfeuchtigkeit
    00:00 +8°C° 0 mm 2 m/S 728 mmHg 58%
    01:00 +8°C° 0 mm 2 m/S 728 mmHg 59%
    02:00 +8°C° 0 mm 1 m/S 727 mmHg 59%
    03:00 +8°C° 0 mm 1 m/S 727 mmHg 60%
    04:00 +8°C° 0 mm 1 m/S 727 mmHg 60%
    05:00 +8°C° 0 mm 1 m/S 727 mmHg 61%
    06:00 +8°C° 0 mm 1 m/S 727 mmHg 59%
    07:00 +8°C° 0 mm 1 m/S 727 mmHg 57%
    08:00 +9°C° 0 mm 1 m/S 727 mmHg 55%
    09:00 +12°C° 0 mm 2 m/S 727 mmHg 48%
    10:00 +14°C° 0 mm 2 m/S 727 mmHg 41%
    11:00 +17°C° 0 mm 3 m/S 727 mmHg 34%
    12:00 +18°C° 0 mm 4 m/S 726 mmHg 32%
    13:00 +19°C° 0 mm 4 m/S 726 mmHg 31%
    14:00 +20°C° 0 mm 5 m/S 725 mmHg 30%
    15:00 +19°C° 0 mm 5 m/S 724 mmHg 33%
    16:00 +16°C° 0 mm 5 m/S 724 mmHg 36%
    17:00 +15°C° 0 mm 4 m/S 723 mmHg 38%
    18:00 +13°C° 0 mm 4 m/S 724 mmHg 43%
    19:00 +12°C° 0 mm 4 m/S 724 mmHg 47%
    20:00 +10°C° 0 mm 4 m/S 724 mmHg 51%
    21:00 +10°C° 0 mm 4 m/S 724 mmHg 53%
    22:00 +8°C° 0 mm 4 m/S 724 mmHg 54%
    23:00 +9°C° 0 mm 3 m/S 724 mmHg 55%

    3 Juni, Mittwoch

    Zeit Temperatur Niederschläge Wind Luftdruck Luftfeuchtigkeit
    00:00 +8°C° 0 mm 3 m/S 724 mmHg 57%
    01:00 +8°C° 0 mm 3 m/S 724 mmHg 60%
    02:00 +8°C° 0 mm 2 m/S 724 mmHg 62%
    03:00 +7°C° 0 mm 2 m/S 724 mmHg 65%
    04:00 +7°C° 0 mm 2 m/S 724 mmHg 69%
    05:00 +7°C° 0 mm 1 m/S 724 mmHg 72%
    06:00 +8°C° 0 mm 1 m/S 725 mmHg 72%
    07:00 +8°C° 0 mm 1 m/S 725 mmHg 72%
    08:00 +7°C° 0 mm 0 m/S 726 mmHg 72%
    09:00 +9°C° 0 mm 1 m/S 726 mmHg 67%
    10:00 +11°C° 0 mm 1 m/S 727 mmHg 62%
    11:00 +12°C° 0 mm 2 m/S 727 mmHg 57%
    12:00 +12°C° 0 mm 2 m/S 727 mmHg 57%
    13:00 +12°C° 0 mm 2 m/S 727 mmHg 57%
    14:00 +13°C° 0 mm 2 m/S 727 mmHg 57%
    15:00 +12°C° 0.1 mm 2 m/S 727 mmHg 59%
    16:00 +12°C° 0.1 mm 2 m/S 728 mmHg 62%
    17:00 +12°C° 0.1 mm 2 m/S 728 mmHg 65%
    18:00 +10°C° 0.1 mm 2 m/S 729 mmHg 65%
    19:00 +10°C° 0.1 mm 2 m/S 729 mmHg 65%
    20:00 +10°C° 0.1 mm 2 m/S 730 mmHg 66%
    21:00 +10°C° 0.1 mm 2 m/S 730 mmHg 67%
    22:00 +10°C° 0.1 mm 1 m/S 731 mmHg 68%
    23:00 +10°C° 0.1 mm 1 m/S 731 mmHg 69%

    4 Juni, Donnerstag

    Zeit Temperatur Niederschläge Wind Luftdruck Luftfeuchtigkeit
    00:00 +10°C° 0 mm 1 m/S 731 mmHg 70%
    01:00 +10°C° 0 mm 1 m/S 731 mmHg 70%
    02:00 +10°C° 0 mm 1 m/S 731 mmHg 70%
    03:00 +9°C° 0.1 mm 1 m/S 730 mmHg 72%
    04:00 +8°C° 0.1 mm 2 m/S 730 mmHg 74%
    05:00 +8°C° 0.1 mm 2 m/S 730 mmHg 75%
    06:00 +8°C° 0 mm 2 m/S 730 mmHg 75%
    07:00 +8°C° 0 mm 2 m/S 730 mmHg 75%
    08:00 +8°C° 0 mm 2 m/S 731 mmHg 74%
    09:00 +9°C° 0.1 mm 2 m/S 731 mmHg 72%
    10:00 +9°C° 0.1 mm 3 m/S 731 mmHg 70%
    11:00 +10°C° 0.1 mm 4 m/S 731 mmHg 69%
    12:00 +8°C° 0.8 mm 4 m/S 730 mmHg 72%
    13:00 +8°C° 0.8 mm 4 m/S 729 mmHg 75%
    14:00 +9°C° 0.8 mm 3 m/S 729 mmHg 79%
    15:00 +8°C° 0.7 mm 3 m/S 729 mmHg 81%
    16:00 +8°C° 0.7 mm 3 m/S 729 mmHg 83%
    17:00 +8°C° 0.7 mm 3 m/S 729 mmHg 85%
    18:00 +8°C° 0.5 mm 3 m/S 729 mmHg 85%
    19:00 +8°C° 0.5 mm 2 m/S 729 mmHg 85%
    20:00 +8°C° 0.5 mm 2 m/S 729 mmHg 84%
    21:00 +8°C° 0.1 mm 2 m/S 729 mmHg 83%
    22:00 +8°C° 0.1 mm 2 m/S 729 mmHg 82%
    23:00 +8°C° 0.1 mm 2 m/S 728 mmHg 80%
    Mehr zeigen